QPF
0.05 0.05 0.05 0.07 0.09 0.09 0.11 0.11 0.10 0.10 0.10 0.11 0.12 0.14 0.13 0.14 0.14 0.14 0.13 0.11 0.10 0.09 0.08 0.07 0.04 0.03 0.04 0.04 0.05 0.06 0.07 0.06 0.04 0.03 0.03 0.03 0.04 0.05 0.06 0.05 0.05 0.07 0.11
0.05 0.05 0.04 0.05 0.06 0.09 0.09 0.09 0.10 0.11 0.11 0.12 0.14 0.15 0.14 0.12 0.11 0.10 0.11 0.12 0.12 0.10 0.10 0.10 0.07 0.07 0.07 0.06 0.07 0.07 0.06 0.06 0.06 0.06 0.05 0.04 0.04 0.05 0.05 0.05 0.05 0.05 0.07
0.13 0.07 0.06 0.06 0.04 0.04 0.06 0.07 0.08 0.10 0.12 0.14 0.16 0.18 0.16 0.15 0.15 0.15 0.15 0.15 0.15 0.14 0.13 0.12 0.11 0.10 0.08 0.06 0.07 0.08 0.08 0.08 0.08 0.06 0.05 0.04 0.03 0.03 0.04 0.05 0.05 0.05 0.05
0.08 0.09 0.11 0.06 0.04 0.04 0.06 0.06 0.06 0.07 0.10 0.13 0.14 0.16 0.17 0.16 0.17 0.16 0.14 0.14 0.15 0.16 0.16 0.14 0.12 0.10 0.08 0.08 0.08 0.07 0.08 0.09 0.08 0.07 0.07 0.05 0.05 0.04 0.03 0.03 0.03 0.03 0.03
0.09 0.08 0.08 0.07 0.06 0.05 0.04 0.04 0.06 0.09 0.10 0.12 0.12 0.17 0.22 0.23 0.20 0.18 0.15 0.14 0.16 0.19 0.19 0.17 0.14 0.14 0.14 0.14 0.13 0.10 0.09 0.09 0.08 0.07 0.06 0.06 0.05 0.05 0.04 0.04 0.03 0.03 0.03
0.04 0.05 0.07 0.07 0.07 0.06 0.05 0.05 0.07 0.08 0.09 0.08 0.09 0.15 0.18 0.19 0.19 0.17 0.15 0.15 0.15 0.16 0.18 0.17 0.15 0.14 0.12 0.12 0.12 0.12 0.11 0.08 0.06 0.05 0.05 0.05 0.06 0.06 0.07 0.06 0.06 0.06 0.06
0.02 0.03 0.05 0.05 0.05 0.05 0.05 0.07 0.07 0.07 0.08 0.08 0.07 0.10 0.14 0.14 0.15 0.15 0.15 0.15 0.16 0.16 0.15 0.13 0.11 0.09 0.08 0.07 0.08 0.09 0.10 0.11 0.09 0.08 0.08 0.08 0.07 0.07 0.07 0.08 0.08 0.09 0.08
0.01 0.02 0.04 0.06 0.05 0.06 0.08 0.10 0.11 0.09 0.08 0.08 0.08 0.09 0.10 0.12 0.13 0.12 0.13 0.12 0.12 0.12 0.10 0.09 0.07 0.06 0.07 0.08 0.08 0.11 0.16 0.19 0.20 0.19 0.17 0.13 0.10 0.08 0.07 0.06 0.06 0.06 0.04
0.02 0.02 0.05 0.07 0.09 0.11 0.12 0.13 0.12 0.09 0.07 0.07 0.08 0.09 0.09 0.11 0.14 0.12 0.10 0.09 0.09 0.09 0.09 0.08 0.06 0.05 0.06 0.06 0.06 0.08 0.09 0.11 0.13 0.13 0.12 0.10 0.08 0.08 0.06 0.05 0.05 0.05 0.04
0.03 0.03 0.03 0.04 0.06 0.08 0.11 0.13 0.14 0.11 0.08 0.07 0.07 0.07 0.07 0.08 0.11 0.12 0.11 0.09 0.08 0.07 0.05 0.05 0.06 0.07 0.07 0.06 0.05 0.05 0.05 0.05 0.05 0.05 0.06 0.07 0.06 0.06 0.05 0.04 0.03 0.04 0.04
0.03 0.02 0.01 0.02 0.03 0.04 0.05 0.07 0.08 0.08 0.07 0.06 0.05 0.05 0.05 0.08 0.12 0.15 0.14 0.09 0.07 0.06 0.04 0.04 0.05 0.06 0.04 0.04 0.03 0.03 0.02 0.02 0.02 0.02 0.02 0.02 0.02 0.02 0.02 0.02 0.01 0.01 0.01
0.01 0.01 0.01 0.01 0.02 0.02 0.02 0.03 0.04 0.04 0.04 0.04 0.04 0.05 0.06 0.07 0.08 0.10 0.10 0.08 0.06 0.05 0.06 0.06 0.06 0.04 0.02 0.01 0.01 0.01 0.01 0.01 0.01 0.00 0.00 0.00 0.01 0.01 0.02 0.02 0.02 0.02 0.02
0.01 0.01 0.01 0.01 0.02 0.02 0.02 0.02 0.03 0.03 0.03 0.03 0.03 0.04 0.05 0.06 0.08 0.10 0.10 0.10 0.10 0.08 0.08 0.07 0.05 0.03 0.01 0.01 0.01 0.01 0.01 0.01 0.01 0.01 0.01 0.01 0.01 0.01 0.01 0.01 0.01 0.01 0.01
0.01 0.01 0.01 0.01 0.02 0.03 0.03 0.02 0.03 0.03 0.04 0.04 0.03 0.03 0.04 0.05 0.06 0.08 0.09 0.09 0.08 0.05 0.05 0.04 0.03 0.02 0.02 0.02 0.02 0.01 0.01 0.02 0.02 0.01 0.01 0.02 0.01 0.01 0.01 0.01 0.01 0.01 0.01
0.01 0.01 0.03 0.03 0.02 0.03 0.03 0.03 0.03 0.03 0.03 0.04 0.05 0.04 0.04 0.05 0.07 0.07 0.06 0.05 0.05 0.05 0.04 0.04 0.03 0.03 0.03 0.03 0.03 0.02 0.02 0.01 0.01 0.01 0.01 0.01 0.01 0.01 0.01 0.01 0.01 0.01 0.01
0.03 0.02 0.03 0.03 0.02 0.02 0.02 0.02 0.02 0.02 0.03 0.04 0.05 0.04 0.04 0.04 0.04 0.04 0.05 0.05 0.05 0.05 0.05 0.05 0.05 0.05 0.05 0.05 0.05 0.05 0.06 0.05 0.04 0.03 0.02 0.02 0.01 0.01 0.01 0.02 0.02 0.02 0.02
0.03 0.03 0.02 0.01 0.01 0.01 0.01 0.01 0.01 0.01 0.02 0.03 0.04 0.04 0.03 0.04 0.04 0.04 0.04 0.05 0.04 0.03 0.03 0.03 0.03 0.03 0.03 0.03 0.03 0.02 0.02 0.03 0.02 0.02 0.02 0.02 0.02 0.02 0.02 0.02 0.03 0.03 0.03
0.03 0.03 0.03 0.02 0.01 0.01 0.02 0.02 0.02 0.01 0.02 0.01 0.02 0.03 0.03 0.05 0.06 0.08 0.07 0.07 0.06 0.04 0.03 0.03 0.03 0.02 0.01 0.01 0.01 0.00 0.00 0.00 0.00 0.01 0.01 0.01 0.02 0.02 0.02 0.02 0.03 0.04 0.04
0.06 0.05 0.05 0.04 0.03 0.03 0.02 0.02 0.02 0.01 0.01 0.00 0.01 0.02 0.03 0.05 0.07 0.09 0.09 0.06 0.05 0.04 0.03 0.02 0.01 0.01 0.00 0.00 0.00 0.00 0.00 0.00 0.00 0.00 0.00 0.00 0.00 0.01 0.01 0.02 0.03 0.03 0.03
0.05 0.07 0.08 0.05 0.04 0.03 0.02 0.01 0.01 0.00 0.01 0.01 0.01 0.01 0.02 0.02 0.02 0.03 0.04 0.03 0.03 0.03 0.02 0.01 0.00 0.00 0.00 0.00 0.00 0.00 0.00 0.00 0.00 0.00 0.00 0.00 0.00 0.00 0.01 0.01 0.01 0.01 0.02
0.02 0.02 0.03 0.03 0.02 0.01 0.01 0.00 0.00 0.01 0.01 0.01 0.00 0.01 0.01 0.01 0.02 0.02 0.02 0.02 0.02 0.01 0.01 0.00 0.00 0.00 0.00 0.00 0.00 0.00 0.00 0.00 0.00 0.00 0.00 0.00 0.00 0.00 0.01 0.01 0.01 0.01 0.01
0.01 0.00 0.00 0.00 0.00 0.00 0.00 0.00 0.00 0.00 0.00 0.00 0.00 0.00 0.00 0.00 0.01 0.01 0.01 0.01 0.01 0.01 0.01 0.01 0.01 0.01 0.00 0.00 0.00 0.00 0.00 0.00 0.00 0.00 0.00 0.00 0.00 0.00 0.00 0.00 0.01 0.01 0.01
0.00 0.00 0.00 0.00 0.00 0.00 0.00 0.00 0.00 0.00 0.00 0.00 0.00 0.00 0.00 0.00 0.00 0.00 0.01 0.01 0.01 0.01 0.01 0.01 0.01 0.01 0.01 0.00 0.00 0.00 0.00 0.00 0.00 0.00 0.00 0.00 0.00 0.00 0.00 0.00 0.00 0.00 0.00
0.00 0.00 0.00 0.00 0.00 0.00 0.00 0.00 0.00 0.00 0.00 0.00 0.00 0.00 0.00 0.00 0.00 0.00 0.00 0.00 0.00 0.00 0.00 0.00 0.00 0.00 0.00 0.00 0.00 0.00 0.00 0.00 0.00 0.00 0.00 0.00 0.00 0.00 0.00 0.00 0.00 0.00 0.00
0.00 0.00 0.00 0.00 0.00 0.00 0.00 0.00 0.00 0.00 0.00 0.00 0.00 0.00 0.00 0.00 0.00 0.00 0.00 0.00 0.00 0.00 0.00 0.00 0.00 0.00 0.00 0.00 0.00 0.00 0.00 0.00 0.00 0.00 0.00 0.00 0.00 0.00 0.00 0.00 0.00 0.00 0.00
0.00 0.00 0.00 0.00 0.00 0.00 0.00 0.00 0.00 0.00 0.00 0.00 0.00 0.00 0.00 0.00 0.00 0.00 0.00 0.00 0.00 0.00 0.00 0.00 0.00 0.00 0.00 0.00 0.00 0.00 0.00 0.00 0.00 0.00 0.00 0.00 0.00 0.00 0.00 0.00 0.00 0.00 0.00
MSLP
1011.16 1011.39 1011.74 1012.15 1012.57 1012.95 1013.26 1013.50 1013.69 1013.86 1014.03 1014.22 1014.46 1014.74 1015.05 1015.37 1015.69 1016.00 1016.28 1016.55 1016.81 1017.07 1017.33 1017.59 1017.85 1018.11 1018.35 1018.56 1018.73 1018.84 1018.89 1018.89 1018.83 1018.71 1018.56 1018.39 1018.20 1018.03 1017.89 1017.80 1017.78 1017.85 1018.02
1011.20 1011.37 1011.66 1012.03 1012.41 1012.77 1013.07 1013.31 1013.51 1013.67 1013.83 1014.01 1014.23 1014.49 1014.79 1015.12 1015.46 1015.79 1016.10 1016.40 1016.67 1016.92 1017.16 1017.39 1017.60 1017.80 1017.99 1018.16 1018.32 1018.44 1018.53 1018.59 1018.61 1018.58 1018.51 1018.40 1018.26 1018.11 1017.97 1017.87 1017.82 1017.85 1017.97
1011.28 1011.41 1011.66 1011.97 1012.31 1012.64 1012.92 1013.15 1013.34 1013.51 1013.67 1013.85 1014.07 1014.33 1014.63 1014.96 1015.30 1015.65 1015.98 1016.29 1016.57 1016.82 1017.03 1017.22 1017.40 1017.55 1017.70 1017.84 1017.98 1018.12 1018.25 1018.36 1018.45 1018.51 1018.51 1018.47 1018.38 1018.27 1018.14 1018.03 1017.97 1017.97 1018.06
1011.40 1011.51 1011.71 1011.97 1012.26 1012.54 1012.80 1013.02 1013.21 1013.39 1013.56 1013.76 1013.99 1014.26 1014.56 1014.89 1015.24 1015.59 1015.92 1016.23 1016.51 1016.74 1016.94 1017.10 1017.24 1017.36 1017.48 1017.60 1017.74 1017.89 1018.05 1018.21 1018.36 1018.48 1018.55 1018.57 1018.53 1018.45 1018.35 1018.25 1018.19 1018.18 1018.26
1011.57 1011.66 1011.82 1012.02 1012.25 1012.48 1012.70 1012.91 1013.10 1013.29 1013.49 1013.72 1013.98 1014.26 1014.58 1014.92 1015.27 1015.61 1015.93 1016.23 1016.49 1016.71 1016.89 1017.03 1017.15 1017.25 1017.35 1017.47 1017.61 1017.77 1017.95 1018.15 1018.33 1018.49 1018.61 1018.67 1018.67 1018.63 1018.56 1018.49 1018.44 1018.45 1018.53
1011.80 1011.88 1011.98 1012.12 1012.28 1012.45 1012.63 1012.81 1013.01 1013.22 1013.46 1013.73 1014.02 1014.34 1014.68 1015.03 1015.38 1015.71 1016.02 1016.30 1016.54 1016.74 1016.91 1017.04 1017.15 1017.25 1017.35 1017.46 1017.60 1017.78 1017.97 1018.17 1018.38 1018.55 1018.70 1018.78 1018.82 1018.81 1018.78 1018.73 1018.72 1018.76 1018.87
1012.11 1012.16 1012.21 1012.27 1012.35 1012.44 1012.57 1012.72 1012.92 1013.16 1013.44 1013.76 1014.11 1014.47 1014.85 1015.21 1015.56 1015.89 1016.19 1016.45 1016.68 1016.87 1017.03 1017.16 1017.27 1017.38 1017.48 1017.61 1017.76 1017.93 1018.12 1018.32 1018.52 1018.70 1018.85 1018.95 1019.00 1019.02 1019.01 1019.01 1019.03 1019.11 1019.25
1012.49 1012.50 1012.49 1012.47 1012.45 1012.47 1012.53 1012.66 1012.85 1013.12 1013.45 1013.82 1014.22 1014.64 1015.05 1015.45 1015.82 1016.15 1016.44 1016.70 1016.92 1017.10 1017.27 1017.41 1017.54 1017.66 1017.79 1017.93 1018.09 1018.26 1018.44 1018.63 1018.81 1018.97 1019.10 1019.20 1019.26 1019.29 1019.31 1019.34 1019.40 1019.51 1019.69
1012.95 1012.91 1012.83 1012.72 1012.61 1012.55 1012.55 1012.65 1012.84 1013.12 1013.48 1013.91 1014.38 1014.85 1015.31 1015.74 1016.14 1016.48 1016.79 1017.05 1017.28 1017.48 1017.66 1017.83 1017.98 1018.14 1018.29 1018.45 1018.61 1018.78 1018.95 1019.11 1019.27 1019.40 1019.51 1019.58 1019.63 1019.66 1019.70 1019.75 1019.84 1019.98 1020.18
1013.47 1013.38 1013.23 1013.04 1012.85 1012.72 1012.67 1012.73 1012.91 1013.21 1013.61 1014.08 1014.59 1015.12 1015.63 1016.10 1016.53 1016.91 1017.23 1017.52 1017.77 1018.00 1018.21 1018.41 1018.59 1018.78 1018.96 1019.13 1019.30 1019.46 1019.62 1019.76 1019.88 1019.98 1020.06 1020.11 1020.14 1020.16 1020.20 1020.26 1020.36 1020.51 1020.72
1014.03 1013.90 1013.69 1013.44 1013.20 1013.02 1012.94 1012.97 1013.15 1013.45 1013.87 1014.37 1014.92 1015.48 1016.03 1016.55 1017.01 1017.42 1017.79 1018.11 1018.39 1018.66 1018.90 1019.13 1019.35 1019.56 1019.76 1019.95 1020.12 1020.28 1020.42 1020.54 1020.63 1020.70 1020.74 1020.76 1020.77 1020.78 1020.79 1020.84 1020.94 1021.08 1021.28
1014.60 1014.44 1014.21 1013.94 1013.68 1013.49 1013.39 1013.42 1013.59 1013.90 1014.32 1014.83 1015.40 1015.99 1016.56 1017.10 1017.60 1018.05 1018.45 1018.80 1019.12 1019.42 1019.70 1019.96 1020.21 1020.44 1020.65 1020.85 1021.02 1021.16 1021.29 1021.38 1021.45 1021.48 1021.49 1021.48 1021.47 1021.45 1021.45 1021.47 1021.54 1021.66 1021.82
1015.16 1015.02 1014.80 1014.55 1014.32 1014.15 1014.07 1014.10 1014.28 1014.58 1015.00 1015.51 1016.07 1016.65 1017.23 1017.79 1018.30 1018.78 1019.21 1019.59 1019.95 1020.27 1020.57 1020.85 1021.11 1021.35 1021.56 1021.75 1021.91 1022.04 1022.15 1022.22 1022.26 1022.27 1022.26 1022.22 1022.18 1022.14 1022.10 1022.10 1022.13 1022.20 1022.32
1015.72 1015.62 1015.46 1015.28 1015.11 1014.99 1014.96 1015.03 1015.22 1015.52 1015.91 1016.40 1016.93 1017.49 1018.05 1018.60 1019.12 1019.60 1020.04 1020.45 1020.82 1021.16 1021.47 1021.75 1022.01 1022.24 1022.44 1022.60 1022.74 1022.85 1022.94 1022.99 1023.01 1023.01 1022.97 1022.92 1022.86 1022.79 1022.72 1022.68 1022.66 1022.69 1022.75
1016.28 1016.25 1016.18 1016.10 1016.04 1016.01 1016.05 1016.16 1016.36 1016.66 1017.03 1017.47 1017.96 1018.47 1018.99 1019.51 1020.01 1020.48 1020.92 1021.33 1021.71 1022.04 1022.35 1022.62 1022.86 1023.06 1023.23 1023.38 1023.49 1023.57 1023.63 1023.67 1023.67 1023.66 1023.61 1023.55 1023.47 1023.37 1023.28 1023.20 1023.15 1023.12 1023.13
1016.85 1016.92 1016.97 1017.01 1017.07 1017.15 1017.27 1017.43 1017.66 1017.94 1018.28 1018.67 1019.10 1019.55 1020.02 1020.49 1020.95 1021.40 1021.82 1022.22 1022.58 1022.90 1023.19 1023.43 1023.64 1023.81 1023.95 1024.06 1024.14 1024.19 1024.23 1024.26 1024.25 1024.23 1024.18 1024.11 1024.01 1023.90 1023.79 1023.67 1023.58 1023.51 1023.47
1017.45 1017.62 1017.79 1017.96 1018.14 1018.33 1018.53 1018.75 1018.99 1019.27 1019.57 1019.91 1020.27 1020.66 1021.06 1021.47 1021.89 1022.30 1022.70 1023.08 1023.42 1023.72 1023.98 1024.19 1024.37 1024.50 1024.60 1024.68 1024.73 1024.77 1024.79 1024.80 1024.79 1024.76 1024.71 1024.63 1024.53 1024.41 1024.28 1024.14 1024.01 1023.90 1023.81
1018.09 1018.35 1018.63 1018.91 1019.20 1019.48 1019.75 1020.02 1020.28 1020.54 1020.82 1021.10 1021.40 1021.72 1022.07 1022.43 1022.80 1023.17 1023.54 1023.89 1024.21 1024.49 1024.72 1024.91 1025.05 1025.16 1025.23 1025.28 1025.31 1025.32 1025.34 1025.34 1025.33 1025.30 1025.25 1025.17 1025.06 1024.93 1024.78 1024.61 1024.45 1024.31 1024.18
1018.75 1019.09 1019.45 1019.82 1020.18 1020.53 1020.86 1021.16 1021.43 1021.68 1021.93 1022.17 1022.43 1022.70 1023.00 1023.31 1023.65 1023.98 1024.32 1024.65 1024.94 1025.20 1025.42 1025.59 1025.71 1025.80 1025.85 1025.89 1025.90 1025.92 1025.92 1025.92 1025.91 1025.88 1025.82 1025.74 1025.62 1025.47 1025.30 1025.12 1024.93 1024.75 1024.59
1019.41 1019.79 1020.20 1020.62 1021.04 1021.43 1021.79 1022.11 1022.39 1022.64 1022.87 1023.09 1023.32 1023.56 1023.82 1024.10 1024.41 1024.72 1025.04 1025.34 1025.62 1025.87 1026.07 1026.23 1026.34 1026.42 1026.47 1026.50 1026.52 1026.54 1026.55 1026.54 1026.53 1026.49 1026.43 1026.33 1026.20 1026.04 1025.85 1025.64 1025.43 1025.22 1025.03
1020.03 1020.42 1020.85 1021.29 1021.72 1022.13 1022.51 1022.84 1023.14 1023.39 1023.62 1023.84 1024.05 1024.28 1024.52 1024.79 1025.07 1025.37 1025.67 1025.96 1026.22 1026.45 1026.65 1026.81 1026.92 1027.01 1027.06 1027.10 1027.14 1027.16 1027.17 1027.17 1027.16 1027.11 1027.04 1026.92 1026.77 1026.58 1026.36 1026.13 1025.89 1025.66 1025.44
1020.56 1020.94 1021.35 1021.78 1022.22 1022.64 1023.02 1023.37 1023.67 1023.95 1024.19 1024.41 1024.63 1024.86 1025.10 1025.36 1025.64 1025.92 1026.20 1026.47 1026.72 1026.94 1027.13 1027.29 1027.41 1027.50 1027.57 1027.63 1027.68 1027.71 1027.73 1027.73 1027.71 1027.66 1027.57 1027.43 1027.25 1027.04 1026.80 1026.54 1026.27 1026.02 1025.78
1020.94 1021.29 1021.68 1022.10 1022.53 1022.94 1023.33 1023.70 1024.02 1024.32 1024.59 1024.84 1025.08 1025.32 1025.57 1025.83 1026.09 1026.35 1026.61 1026.86 1027.09 1027.30 1027.47 1027.62 1027.75 1027.85 1027.94 1028.01 1028.07 1028.12 1028.15 1028.16 1028.13 1028.07 1027.96 1027.80 1027.60 1027.36 1027.09 1026.81 1026.53 1026.26 1026.02
1021.15 1021.48 1021.85 1022.25 1022.66 1023.08 1023.48 1023.86 1024.22 1024.55 1024.86 1025.14 1025.41 1025.67 1025.93 1026.18 1026.42 1026.67 1026.90 1027.11 1027.31 1027.49 1027.65 1027.78 1027.91 1028.01 1028.11 1028.20 1028.28 1028.34 1028.38 1028.39 1028.36 1028.29 1028.17 1027.99 1027.77 1027.51 1027.23 1026.94 1026.65 1026.38 1026.14
1021.20 1021.51 1021.86 1022.25 1022.67 1023.09 1023.51 1023.92 1024.31 1024.68 1025.02 1025.34 1025.64 1025.91 1026.17 1026.41 1026.64 1026.84 1027.04 1027.21 1027.37 1027.51 1027.64 1027.76 1027.88 1027.98 1028.09 1028.19 1028.29 1028.36 1028.41 1028.43 1028.40 1028.32 1028.19 1028.01 1027.78 1027.52 1027.23 1026.94 1026.65 1026.39 1026.16
1021.12 1021.43 1021.78 1022.17 1022.59 1023.03 1023.47 1023.91 1024.33 1024.73 1025.10 1025.45 1025.76 1026.05 1026.30 1026.53 1026.72 1026.90 1027.05 1027.18 1027.30 1027.40 1027.50 1027.59 1027.70 1027.80 1027.91 1028.02 1028.12 1028.21 1028.28 1028.30 1028.28 1028.21 1028.09 1027.91 1027.69 1027.43 1027.15 1026.87 1026.60 1026.35 1026.14
Thickness
5755 5754 5752 5750 5750 5749 5747 5745 5744 5744 5743 5741 5740 5739 5737 5736 5735 5733 5731 5730 5728 5727 5726 5725 5723 5723 5723 5722 5721 5720 5717 5715 5710 5711 5714 5717 5716 5715 5715 5714 5713 5711 5710
5753 5752 5750 5748 5747 5745 5743 5743 5742 5741 5740 5739 5738 5736 5734 5733 5731 5730 5728 5727 5724 5722 5722 5720 5719 5720 5719 5718 5716 5715 5713 5712 5709 5705 5706 5707 5708 5708 5708 5707 5706 5705 5704
5750 5748 5746 5744 5742 5741 5740 5739 5739 5738 5736 5735 5734 5732 5730 5729 5727 5725 5723 5722 5720 5718 5717 5716 5715 5714 5712 5712 5711 5709 5709 5708 5706 5702 5699 5699 5699 5700 5698 5698 5698 5697 5696
5745 5742 5740 5738 5737 5736 5736 5735 5734 5734 5732 5730 5729 5728 5726 5724 5722 5720 5718 5716 5714 5713 5712 5711 5710 5709 5707 5706 5705 5704 5703 5700 5698 5695 5692 5689 5689 5689 5688 5686 5685 5685 5685
5739 5736 5734 5732 5731 5730 5730 5729 5728 5728 5726 5725 5723 5722 5721 5719 5717 5715 5712 5711 5708 5707 5706 5705 5705 5704 5704 5702 5700 5698 5696 5693 5690 5687 5683 5680 5678 5677 5676 5676 5674 5673 5674
5733 5730 5728 5727 5725 5724 5723 5722 5721 5720 5719 5717 5715 5714 5713 5711 5710 5709 5707 5705 5703 5701 5699 5698 5697 5696 5696 5695 5694 5693 5690 5686 5682 5678 5674 5671 5669 5668 5668 5667 5664 5662 5660
5727 5725 5723 5721 5719 5718 5718 5716 5713 5712 5711 5709 5707 5705 5704 5702 5702 5701 5700 5698 5696 5693 5691 5689 5688 5687 5686 5686 5685 5683 5681 5679 5676 5672 5666 5664 5662 5660 5659 5657 5655 5652 5649
5721 5718 5716 5715 5713 5711 5710 5708 5706 5705 5703 5701 5699 5698 5696 5694 5694 5693 5692 5690 5687 5685 5683 5681 5679 5678 5677 5676 5674 5671 5668 5665 5664 5662 5658 5655 5653 5652 5650 5648 5646 5642 5640
5713 5710 5709 5708 5706 5704 5702 5700 5699 5698 5695 5693 5692 5690 5688 5686 5685 5684 5683 5680 5677 5674 5672 5671 5670 5668 5667 5666 5663 5659 5656 5653 5651 5650 5647 5644 5643 5641 5640 5638 5634 5630 5625
5705 5703 5702 5701 5700 5697 5695 5693 5692 5690 5688 5686 5683 5681 5679 5677 5676 5675 5674 5671 5666 5663 5660 5659 5659 5658 5656 5655 5653 5649 5644 5640 5639 5637 5634 5632 5630 5628 5627 5625 5622 5617 5612
5699 5697 5695 5694 5692 5690 5688 5686 5684 5682 5679 5676 5673 5670 5669 5667 5666 5665 5664 5662 5658 5654 5650 5647 5646 5645 5644 5643 5641 5637 5633 5630 5627 5624 5621 5618 5617 5615 5613 5611 5609 5605 5600
5690 5688 5686 5685 5684 5682 5680 5677 5675 5673 5669 5666 5663 5660 5657 5656 5655 5653 5652 5651 5648 5643 5638 5635 5634 5633 5631 5630 5627 5625 5622 5619 5614 5610 5607 5604 5602 5600 5598 5597 5594 5592 5588
5680 5678 5676 5675 5673 5671 5670 5668 5666 5663 5660 5655 5652 5649 5646 5644 5642 5642 5640 5638 5636 5632 5628 5625 5623 5621 5619 5616 5614 5612 5609 5605 5601 5596 5592 5589 5588 5586 5585 5583 5580 5577 5574
5671 5668 5666 5664 5661 5659 5657 5656 5654 5652 5650 5647 5643 5639 5635 5632 5630 5630 5628 5625 5623 5620 5616 5614 5611 5609 5605 5602 5600 5597 5594 5590 5586 5582 5578 5576 5574 5573 5570 5567 5563 5561 5557
5662 5658 5655 5652 5649 5645 5642 5640 5640 5639 5640 5637 5633 5630 5626 5622 5619 5619 5618 5615 5611 5609 5605 5602 5598 5595 5590 5586 5583 5581 5578 5575 5572 5568 5565 5562 5560 5557 5554 5552 5549 5545 5541
5653 5649 5645 5642 5638 5635 5632 5628 5626 5626 5626 5625 5623 5620 5616 5613 5610 5609 5606 5604 5601 5598 5594 5588 5583 5579 5575 5571 5567 5565 5562 5559 5557 5554 5551 5548 5545 5542 5540 5537 5534 5530 5526
5645 5641 5637 5633 5630 5626 5623 5621 5616 5613 5613 5611 5609 5607 5605 5602 5600 5597 5594 5591 5588 5585 5580 5573 5568 5564 5560 5556 5553 5550 5546 5544 5542 5540 5537 5534 5532 5529 5526 5523 5519 5516 5513
5636 5633 5629 5625 5621 5618 5614 5611 5608 5605 5601 5597 5595 5594 5593 5591 5588 5585 5582 5579 5573 5569 5564 5559 5554 5550 5546 5542 5539 5535 5533 5531 5528 5526 5523 5520 5517 5515 5512 5509 5505 5503 5500
5627 5623 5620 5617 5613 5609 5605 5602 5598 5595 5592 5588 5585 5582 5581 5579 5576 5573 5570 5565 5559 5554 5550 5545 5541 5537 5533 5529 5526 5523 5520 5517 5514 5511 5509 5506 5504 5501 5498 5496 5493 5491 5488
5619 5616 5613 5608 5604 5600 5597 5593 5589 5586 5582 5578 5574 5571 5569 5566 5562 5557 5555 5550 5545 5540 5536 5532 5528 5524 5521 5517 5514 5510 5507 5503 5501 5498 5496 5494 5491 5489 5486 5484 5481 5479 5476
5610 5607 5605 5600 5596 5592 5588 5584 5580 5576 5572 5567 5564 5561 5558 5554 5549 5545 5541 5537 5533 5528 5524 5520 5516 5512 5509 5505 5501 5498 5494 5491 5488 5486 5483 5481 5480 5477 5475 5473 5470 5468 5466
5602 5599 5596 5592 5588 5583 5579 5575 5570 5566 5562 5558 5553 5550 5547 5542 5537 5532 5529 5525 5521 5517 5514 5509 5505 5501 5497 5493 5489 5486 5482 5479 5476 5474 5472 5470 5468 5466 5464 5462 5460 5458 5456
5594 5591 5587 5583 5579 5575 5570 5566 5561 5557 5552 5548 5544 5539 5535 5530 5526 5522 5518 5514 5511 5506 5503 5498 5494 5489 5486 5482 5479 5476 5472 5469 5466 5464 5462 5460 5458 5456 5454 5452 5451 5449 5448
5587 5583 5579 5575 5570 5566 5561 5557 5552 5548 5544 5539 5534 5530 5525 5521 5517 5512 5508 5504 5500 5496 5492 5488 5483 5479 5475 5472 5468 5466 5463 5460 5458 5456 5454 5451 5449 5447 5446 5444 5443 5442 5440
5579 5576 5571 5567 5562 5557 5553 5549 5544 5540 5536 5531 5526 5521 5517 5512 5508 5504 5499 5495 5491 5486 5482 5478 5473 5469 5466 5462 5459 5456 5454 5452 5450 5448 5446 5444 5442 5440 5438 5437 5436 5435 5434
5572 5568 5564 5559 5555 5550 5546 5541 5537 5532 5528 5524 5519 5514 5510 5505 5500 5496 5491 5487 5482 5477 5473 5468 5464 5461 5457 5454 5451 5448 5446 5445 5443 5441 5440 5437 5435 5434 5432 5431 5430 5429 5428